Location: Winnipauk Village
(41.1295°N, 73.4171°W)
Time: 12:12:15
(UTC+00:00)

Hubble Space Telescope - Pass Details

Date: 27 July 2021
Orbit: 535 x 539 km, 28.5° (Epoch: 21 September)

Event Time Altitude Azimuth Distance (km) Brightness Sun altitude
Rises 01:04:09 0° 235° (SW) 2,665 4.6 -8.6°
Reaches altitude 10° 01:07:21 10° 209° (SSW) 1,775 3.4 -9.1°
Maximum altitude 01:09:28 14° 178° (S) 1,546 2.8 -9.4°
Enters shadow 01:11:16 11° 151° (SSE) 1,713 2.8 -9.7°
